• In Moldova, Republic
  • List of Countries
  • For 7 days
  • Water Temperature
  • Satellite Maps
  • Weather Map
  • Weather Widgets
  • user-avatar
    Login

    Hourly Weather Darwin

    Today, 23 July, Sunday

    Time Temperature Precipitation Wind Pressure Humidity
    00:00 +25°C° 0 mm 3 mps 760 mmHg 32%
    01:00 +25°C° 0 mm 3 mps 760 mmHg 30%
    02:00 +25°C° 0 mm 4 mps 760 mmHg 29%
    03:00 +25°C° 0 mm 4 mps 760 mmHg 27%
    04:00 +23°C° 0 mm 4 mps 760 mmHg 28%
    05:00 +23°C° 0 mm 4 mps 760 mmHg 28%
    06:00 +22°C° 0 mm 4 mps 760 mmHg 29%
    07:00 +25°C° 0 mm 4 mps 760 mmHg 27%
    08:00 +27°C° 0 mm 5 mps 760 mmHg 25%
    09:00 +29°C° 0 mm 5 mps 760 mmHg 23%
    10:00 +32°C° 0 mm 5 mps 760 mmHg 21%
    11:00 +34°C° 0 mm 4 mps 760 mmHg 20%
    12:00 +37°C° 0 mm 4 mps 759 mmHg 18%
    13:00 +37°C° 0 mm 4 mps 759 mmHg 19%
    14:00 +38°C° 0 mm 4 mps 758 mmHg 20%
    15:00 +38°C° 0 mm 4 mps 757 mmHg 20%
    16:00 +36°C° 0 mm 3 mps 757 mmHg 24%
    17:00 +35°C° 0 mm 3 mps 757 mmHg 28%
    18:00 +33°C° 0 mm 3 mps 757 mmHg 32%
    19:00 +31°C° 0 mm 2 mps 758 mmHg 36%
    20:00 +29°C° 0 mm 2 mps 758 mmHg 40%
    21:00 +28°C° 0 mm 2 mps 759 mmHg 44%
    22:00 +28°C° 0 mm 2 mps 759 mmHg 45%
    23:00 +27°C° 0 mm 2 mps 759 mmHg 46%

    Tomorrow, 24 July, Monday

    Time Temperature Precipitation Wind Pressure Humidity
    00:00 +27°C° 0 mm 1 mps 759 mmHg 47%
    01:00 +26°C° 0 mm 2 mps 759 mmHg 44%
    02:00 +26°C° 0 mm 2 mps 759 mmHg 41%
    03:00 +26°C° 0 mm 2 mps 758 mmHg 38%
    04:00 +26°C° 0 mm 2 mps 758 mmHg 40%
    05:00 +25°C° 0 mm 2 mps 759 mmHg 42%
    06:00 +25°C° 0 mm 3 mps 759 mmHg 43%
    07:00 +27°C° 0 mm 4 mps 759 mmHg 41%
    08:00 +28°C° 0 mm 5 mps 760 mmHg 38%
    09:00 +30°C° 0 mm 5 mps 760 mmHg 35%
    10:00 +33°C° 0 mm 6 mps 760 mmHg 32%
    11:00 +35°C° 0 mm 6 mps 759 mmHg 29%
    12:00 +38°C° 0 mm 6 mps 759 mmHg 26%
    13:00 +37°C° 0 mm 5 mps 758 mmHg 26%
    14:00 +39°C° 0 mm 5 mps 757 mmHg 27%
    15:00 +38°C° 0 mm 4 mps 756 mmHg 27%
    16:00 +37°C° 0 mm 4 mps 757 mmHg 31%
    17:00 +35°C° 0 mm 4 mps 757 mmHg 35%
    18:00 +34°C° 0 mm 3 mps 757 mmHg 39%
    19:00 +31°C° 0 mm 3 mps 757 mmHg 43%
    20:00 +30°C° 0 mm 2 mps 758 mmHg 48%
    21:00 +28°C° 0 mm 2 mps 759 mmHg 53%
    22:00 +28°C° 0 mm 2 mps 759 mmHg 53%
    23:00 +27°C° 0 mm 2 mps 759 mmHg 53%

    Day after tomorrow, 25 July, Tuesday

    Time Temperature Precipitation Wind Pressure Humidity
    00:00 +27°C° 0 mm 2 mps 759 mmHg 53%
    01:00 +26°C° 0 mm 2 mps 759 mmHg 53%
    02:00 +26°C° 0 mm 2 mps 759 mmHg 52%
    03:00 +25°C° 0 mm 3 mps 758 mmHg 52%
    04:00 +25°C° 0 mm 3 mps 759 mmHg 54%
    05:00 +25°C° 0 mm 4 mps 759 mmHg 56%
    06:00 +25°C° 0 mm 4 mps 759 mmHg 58%
    07:00 +26°C° 0 mm 5 mps 760 mmHg 56%
    08:00 +28°C° 0 mm 6 mps 760 mmHg 55%
    09:00 +29°C° 0 mm 7 mps 760 mmHg 53%
    10:00 +32°C° 0 mm 7 mps 760 mmHg 48%
    11:00 +34°C° 0 mm 7 mps 759 mmHg 43%
    12:00 +36°C° 0 mm 7 mps 759 mmHg 38%
    13:00 +36°C° 0 mm 6 mps 758 mmHg 38%
    14:00 +36°C° 0 mm 6 mps 758 mmHg 37%
    15:00 +38°C° 0 mm 6 mps 757 mmHg 36%
    16:00 +36°C° 0 mm 5 mps 757 mmHg 40%
    17:00 +34°C° 0 mm 4 mps 757 mmHg 43%
    18:00 +33°C° 0 mm 4 mps 757 mmHg 46%
    19:00 +32°C° 0 mm 4 mps 758 mmHg 51%
    20:00 +30°C° 0 mm 3 mps 759 mmHg 57%
    21:00 +29°C° 0 mm 3 mps 759 mmHg 62%
    22:00 +29°C° 0 mm 3 mps 759 mmHg 62%
    23:00 +28°C° 0 mm 3 mps 759 mmHg 63%

    26 July, Wednesday

    Time Temperature Precipitation Wind Pressure Humidity
    00:00 +28°C° 0 mm 3 mps 759 mmHg 63%
    01:00 +28°C° 0 mm 3 mps 759 mmHg 64%
    02:00 +28°C° 0 mm 4 mps 759 mmHg 65%
    03:00 +27°C° 0 mm 4 mps 759 mmHg 65%
    04:00 +27°C° 0 mm 5 mps 759 mmHg 68%
    05:00 +26°C° 0 mm 5 mps 759 mmHg 71%
    06:00 +26°C° 0 mm 5 mps 759 mmHg 74%
    07:00 +27°C° 0 mm 6 mps 760 mmHg 66%
    08:00 +28°C° 0 mm 6 mps 760 mmHg 59%
    09:00 +30°C° 0 mm 7 mps 760 mmHg 51%
    10:00 +33°C° 0 mm 7 mps 760 mmHg 44%
    11:00 +35°C° 0 mm 6 mps 759 mmHg 37%
    12:00 +38°C° 0 mm 6 mps 759 mmHg 30%
    13:00 +38°C° 0 mm 6 mps 758 mmHg 28%
    14:00 +39°C° 0 mm 5 mps 757 mmHg 26%
    15:00 +39°C° 0 mm 5 mps 756 mmHg 25%
    16:00 +37°C° 0 mm 4 mps 757 mmHg 29%
    17:00 +35°C° 0 mm 4 mps 757 mmHg 33%
    18:00 +34°C° 0 mm 3 mps 757 mmHg 36%
    19:00 +31°C° 0 mm 3 mps 758 mmHg 43%
    20:00 +30°C° 0 mm 3 mps 758 mmHg 50%
    21:00 +29°C° 0 mm 3 mps 759 mmHg 57%
    22:00 +28°C° 0 mm 3 mps 759 mmHg 63%
    23:00 +27°C° 0 mm 3 mps 759 mmHg 69%

    27 July, Thursday

    Time Temperature Precipitation Wind Pressure Humidity
    00:00 +27°C° 0 mm 3 mps 759 mmHg 75%
    01:00 +26°C° 0 mm 3 mps 759 mmHg 75%
    02:00 +26°C° 0 mm 3 mps 759 mmHg 75%
    03:00 +25°C° 0 mm 4 mps 759 mmHg 74%
    04:00 +25°C° 0 mm 4 mps 759 mmHg 73%
    05:00 +23°C° 0 mm 4 mps 760 mmHg 72%
    06:00 +23°C° 0 mm 4 mps 760 mmHg 70%
    07:00 +25°C° 0 mm 5 mps 760 mmHg 64%
    08:00 +27°C° 0 mm 5 mps 761 mmHg 58%
    09:00 +28°C° 0 mm 6 mps 761 mmHg 51%
    10:00 +32°C° 0 mm 6 mps 760 mmHg 43%
    11:00 +34°C° 0 mm 6 mps 760 mmHg 34%
    12:00 +36°C° 0 mm 6 mps 759 mmHg 25%
    13:00 +37°C° 0 mm 5 mps 759 mmHg 24%
    14:00 +37°C° 0 mm 5 mps 758 mmHg 23%
    15:00 +39°C° 0 mm 5 mps 757 mmHg 22%
    16:00 +36°C° 0 mm 4 mps 757 mmHg 27%
    17:00 +35°C° 0 mm 4 mps 758 mmHg 32%
    18:00 +33°C° 0 mm 3 mps 758 mmHg 37%
    19:00 +31°C° 0 mm 3 mps 758 mmHg 43%
    20:00 +29°C° 0 mm 3 mps 759 mmHg 48%
    21:00 +28°C° 0 mm 2 mps 759 mmHg 54%
    22:00 +27°C° 0 mm 2 mps 759 mmHg 57%
    23:00 +27°C° 0 mm 2 mps 759 mmHg 61%

    28 July, Friday

    Time Temperature Precipitation Wind Pressure Humidity
    00:00 +26°C° 0 mm 2 mps 759 mmHg 64%
    01:00 +26°C° 0 mm 2 mps 759 mmHg 64%
    02:00 +26°C° 0 mm 3 mps 759 mmHg 64%
    03:00 +25°C° 0 mm 3 mps 759 mmHg 63%
    04:00 +25°C° 0 mm 3 mps 760 mmHg 64%
    05:00 +25°C° 0 mm 4 mps 760 mmHg 64%
    06:00 +23°C° 0 mm 4 mps 760 mmHg 64%
    07:00 +26°C° 0 mm 4 mps 761 mmHg 61%
    08:00 +27°C° 0 mm 5 mps 761 mmHg 58%
    09:00 +29°C° 0 mm 5 mps 761 mmHg 56%
    10:00 +32°C° 0 mm 5 mps 761 mmHg 46%
    11:00 +34°C° 0 mm 5 mps 760 mmHg 37%
    12:00 +36°C° 0 mm 5 mps 759 mmHg 28%
    13:00 +37°C° 0 mm 5 mps 759 mmHg 27%
    14:00 +39°C° 0 mm 5 mps 758 mmHg 25%
    15:00 +39°C° 0 mm 5 mps 757 mmHg 24%
    16:00 +36°C° 0 mm 4 mps 758 mmHg 29%
    17:00 +35°C° 0 mm 4 mps 758 mmHg 34%
    18:00 +33°C° 0 mm 4 mps 758 mmHg 39%
    19:00 +31°C° 0 mm 3 mps 759 mmHg 47%
    20:00 +29°C° 0 mm 3 mps 759 mmHg 55%
    21:00 +28°C° 0 mm 2 mps 760 mmHg 63%
    22:00 +27°C° 0 mm 2 mps 760 mmHg 66%
    23:00 +27°C° 0 mm 2 mps 760 mmHg 68%
    Show more